Total_Precipitation_Accumulation
0.00 0.00 0.00 0.00 0.00 0.00 0.00 0.00 0.00 0.03 0.05 0.11 0.11 0.17 0.12 0.22 0.62 1.27 1.04 1.38 1.68 0.62 0.52 0.41 0.11 0.03 0.05 0.08 0.08 0.06 0.05 0.04 0.07 0.10 0.21 0.34 0.37 0.55 0.53 0.40 0.42 0.77 1.19 1.04 0.75 0.66 0.77 0.64 0.48
0.00 0.00 0.00 0.00 0.00 0.00 0.00 0.00 0.02 0.10 0.37 0.43 0.30 0.29 0.32 0.81 0.89 1.56 1.47 2.31 2.45 1.37 0.90 0.86 0.61 0.11 0.04 0.04 0.04 0.05 0.06 0.07 0.06 0.06 0.15 0.38 0.44 0.38 0.37 0.51 0.60 0.90 1.20 1.35 1.09 1.29 1.66 1.18 0.81
0.00 0.00 0.00 0.00 0.00 0.00 0.00 0.00 0.01 0.06 0.26 0.37 0.14 0.15 0.30 0.58 1.05 0.85 1.01 1.41 1.53 1.16 1.19 1.07 1.16 0.90 0.35 0.18 0.10 0.07 0.11 0.08 0.07 0.10 0.18 0.30 0.32 0.45 0.48 0.91 1.10 1.39 1.31 1.55 1.49 1.41 1.42 1.06 0.99
0.00 0.00 0.00 0.00 0.00 0.00 0.00 0.01 0.16 0.18 0.12 0.07 0.19 0.26 0.33 0.47 0.73 0.82 0.62 0.87 1.21 1.13 1.27 1.48 1.49 1.01 0.64 0.65 0.29 0.12 0.11 0.04 0.06 0.16 0.35 0.33 0.90 1.04 1.19 1.68 2.47 2.56 2.24 2.29 3.23 2.81 1.81 0.92 1.07
0.00 0.00 0.00 0.00 0.00 0.01 0.02 0.03 0.12 0.12 0.42 0.43 0.15 0.37 0.53 0.60 0.41 0.56 1.02 1.11 1.78 1.83 2.56 3.32 3.01 2.44 1.15 1.03 0.80 0.35 0.18 0.09 0.12 0.31 0.74 1.04 1.76 1.52 1.16 0.96 1.02 1.25 2.20 2.22 1.88 1.74 1.72 1.15 0.30
0.00 0.00 0.00 0.00 0.00 0.03 0.07 0.19 0.34 0.31 0.73 0.52 0.46 0.66 0.66 0.78 0.67 0.58 1.09 1.91 3.18 3.36 3.46 5.12 5.76 5.47 4.26 2.68 1.90 1.54 1.37 1.03 0.79 0.56 0.59 0.59 1.04 1.24 0.75 0.44 0.34 0.26 0.31 0.41 0.40 0.33 0.21 0.22 0.09
0.00 0.00 0.00 0.00 0.01 0.01 0.04 0.19 0.36 0.22 0.62 1.20 0.49 0.62 0.44 0.42 0.62 1.08 1.65 2.31 3.88 5.86 5.89 5.29 7.55 5.18 4.08 4.31 3.31 3.33 2.38 2.16 1.90 1.39 0.82 0.43 0.44 0.59 0.33 0.27 0.20 0.15 0.13 0.18 0.26 0.19 0.15 0.08 0.06
0.00 0.00 0.00 0.00 0.01 0.02 0.06 0.29 0.38 0.15 0.19 0.25 0.33 0.59 0.76 0.40 0.56 0.91 1.65 2.11 3.75 6.60 9.38 6.78 6.77 5.26 3.53 3.46 4.02 3.25 3.43 2.82 2.05 1.61 1.32 0.47 0.54 0.47 0.51 0.32 0.26 0.15 0.09 0.11 0.13 0.21 0.24 0.28 0.26
0.00 0.00 0.00 0.01 0.02 0.05 0.17 0.40 0.32 0.13 0.09 0.16 0.27 0.46 0.62 0.50 0.31 0.76 1.08 1.51 2.11 3.71 5.29 5.85 7.31 6.12 3.64 2.53 3.43 2.96 3.66 3.20 2.04 1.59 2.08 0.83 0.42 0.44 0.39 0.29 0.18 0.17 0.11 0.11 0.17 0.38 0.35 0.30 0.26
0.00 0.00 0.00 0.00 0.05 0.22 0.30 0.46 0.19 0.16 0.38 0.38 0.96 0.58 0.91 0.64 0.34 0.58 0.99 1.01 1.74 2.12 2.41 3.34 5.36 6.95 4.41 2.99 2.11 2.22 2.96 4.64 2.34 1.57 1.79 1.46 0.60 0.51 0.36 0.29 0.28 0.30 0.28 0.33 0.60 0.62 0.48 0.31 0.16
0.00 0.00 0.00 0.01 0.04 0.10 0.07 0.07 0.02 0.03 0.05 0.31 0.50 0.44 0.52 0.61 0.60 0.68 0.97 0.90 1.28 1.37 1.46 1.49 2.50 4.27 3.75 3.14 2.61 2.26 2.43 4.19 3.53 1.69 1.25 1.59 0.71 0.70 0.54 0.47 0.52 0.50 0.47 0.58 0.62 0.68 0.72 0.64 0.40
0.00 0.00 0.00 0.00 0.03 0.04 0.00 0.05 0.02 0.02 0.05 0.08 0.15 0.28 0.46 0.59 0.58 0.71 0.95 1.13 0.86 1.22 1.18 1.14 0.97 2.10 2.12 1.87 2.21 2.07 1.43 2.06 3.80 1.92 1.46 1.24 1.22 0.76 0.51 0.32 0.36 0.34 0.31 0.38 0.41 0.58 0.60 0.48 0.46
0.00 0.00 0.00 0.03 0.01 0.00 0.00 0.00 0.07 0.06 0.09 0.27 0.17 0.60 0.69 0.64 0.59 0.72 1.22 0.84 1.11 1.11 1.16 1.07 0.86 1.17 1.71 1.81 1.88 1.57 0.93 1.27 2.74 2.32 1.69 1.08 1.31 1.08 0.74 0.52 0.28 0.21 0.24 0.29 0.24 0.29 0.31 0.27 0.29
0.00 0.00 0.00 0.00 0.00 0.00 0.01 0.00 0.01 0.18 0.30 0.68 0.58 0.86 0.95 0.61 0.62 1.09 0.61 0.36 0.47 0.70 0.58 0.60 0.78 0.72 1.09 1.61 1.31 1.42 0.98 1.01 2.01 2.46 1.77 1.19 0.90 0.93 0.55 0.44 0.41 0.45 0.42 0.29 0.25 0.27 0.24 0.36 0.59
0.00 0.00 0.00 0.00 0.00 0.00 0.02 0.08 0.16 0.07 0.06 0.19 0.41 0.35 0.41 0.30 0.21 0.29 0.23 0.13 0.21 0.49 0.45 0.46 0.51 0.64 1.09 1.40 1.12 1.07 0.97 0.84 1.28 2.05 1.79 1.79 1.05 0.87 0.63 0.45 0.35 0.33 0.40 0.56 0.61 0.49 0.35 0.29 0.35
0.00 0.00 0.01 0.09 0.00 0.00 0.00 0.13 0.28 0.06 0.08 0.09 0.10 0.09 0.19 0.29 0.21 0.29 0.15 0.10 0.08 0.38 0.31 0.31 0.55 0.86 0.99 1.16 1.10 1.17 0.95 0.85 1.25 1.72 1.71 1.85 1.72 0.83 0.80 0.61 0.34 0.29 0.48 0.73 0.88 0.64 0.33 0.29 0.30
0.00 0.00 0.00 0.00 0.00 0.00 0.00 0.01 0.07 0.06 0.04 0.06 0.04 0.01 0.05 0.35 0.53 0.24 0.14 0.10 0.07 0.12 0.17 0.51 0.83 1.25 1.56 1.49 1.50 1.94 1.73 1.38 1.24 1.59 1.61 1.25 1.76 1.18 0.76 0.66 0.42 0.41 0.37 0.51 0.84 0.83 0.69 0.46 0.29
0.00 0.00 0.00 0.00 0.00 0.00 0.00 0.00 0.03 0.04 0.02 0.01 0.01 0.00 0.01 0.02 0.07 0.03 0.03 0.03 0.08 0.13 0.12 0.70 1.10 1.39 1.57 2.36 2.22 2.04 1.52 1.45 1.33 1.48 1.43 1.26 1.41 1.53 1.08 0.79 0.62 0.62 0.69 0.59 0.57 0.74 0.74 0.75 0.65
0.00 0.00 0.00 0.00 0.00 0.00 0.00 0.00 0.02 0.04 0.03 0.13 0.01 0.00 0.00 0.00 0.00 0.01 0.02 0.05 0.08 0.13 0.31 0.83 1.25 1.58 1.29 0.94 0.80 1.05 0.99 0.94 1.15 1.49 1.33 0.99 1.19 1.29 1.48 0.99 0.67 0.62 0.69 0.74 0.95 0.92 0.82 0.55 0.77
0.00 0.00 0.00 0.00 0.00 0.00 0.00 0.00 0.01 0.02 0.02 0.05 0.02 0.01 0.00 0.00 0.01 0.02 0.04 0.10 0.14 0.27 0.38 0.42 0.43 0.62 0.31 0.26 0.37 0.73 0.94 1.01 1.05 1.29 1.13 1.03 1.17 1.43 1.41 1.29 1.13 0.74 0.72 0.83 1.24 1.26 1.23 0.74 1.05
0.00 0.00 0.00 0.00 0.00 0.00 0.00 0.00 0.00 0.01 0.03 0.02 0.03 0.01 0.00 0.00 0.00 0.02 0.09 0.13 0.15 0.15 0.18 0.07 0.08 0.36 0.36 0.36 0.50 0.79 1.23 1.25 1.31 1.54 1.41 1.20 1.45 1.41 1.53 1.23 1.42 1.25 1.24 1.07 1.23 1.44 1.24 0.83 0.97
0.01 0.00 0.00 0.00 0.01 0.02 0.00 0.02 0.02 0.00 0.01 0.01 0.02 0.01 0.01 0.01 0.01 0.01 0.01 0.02 0.03 0.02 0.05 0.05 0.11 0.28 0.58 0.66 0.66 0.70 0.95 0.93 1.03 1.12 1.39 1.27 1.28 1.41 1.52 1.52 1.65 1.58 1.46 1.42 1.29 1.48 1.39 1.33 1.02
0.03 0.00 0.00 0.00 0.00 0.02 0.01 0.03 0.01 0.00 0.00 0.00 0.01 0.02 0.00 0.01 0.01 0.00 0.01 0.02 0.04 0.11 0.17 0.31 0.42 0.48 0.59 0.71 0.81 0.78 0.88 0.95 1.03 1.18 1.51 1.68 1.27 1.10 1.13 1.36 1.47 1.60 1.57 1.48 1.53 1.50 1.58 1.52 1.64
0.00 0.00 0.00 0.00 0.02 0.07 0.01 0.07 0.02 0.01 0.01 0.02 0.00 0.00 0.00 0.02 0.01 0.01 0.02 0.02 0.14 0.34 0.44 0.54 0.54 0.56 0.65 0.73 0.83 0.88 0.88 0.95 0.90 1.13 1.52 2.25 2.24 1.74 1.50 1.50 1.49 1.61 1.71 1.56 1.78 1.87 1.73 1.96 2.01
0.04 0.09 0.26 0.30 0.12 0.09 0.05 0.09 0.05 0.02 0.02 0.05 0.01 0.01 0.00 0.01 0.01 0.02 0.02 0.07 0.22 0.46 0.60 0.72 0.74 0.66 0.74 0.86 0.94 0.97 1.04 1.00 1.03 1.06 1.20 1.71 2.78 2.82 2.36 2.09 2.20 2.35 2.61 2.76 2.81 2.94 2.79 2.57 2.53
0.05 0.19 0.65 0.73 0.26 0.26 0.18 0.13 0.11 0.08 0.04 0.03 0.03 0.02 0.02 0.01 0.01 0.01 0.06 0.11 0.19 0.50 0.65 0.83 0.95 0.96 0.81 0.84 1.07 1.17 1.22 1.44 1.45 1.50 1.52 1.51 1.77 2.44 2.68 2.60 2.46 2.87 3.50 3.71 4.03 3.95 3.69 3.68 3.56
0.08 0.14 0.16 0.51 0.40 0.46 0.17 0.06 0.10 0.11 0.13 0.09 0.06 0.03 0.04 0.04 0.05 0.11 0.21 0.30 0.38 0.49 0.47 0.56 0.81 0.94 1.20 1.21 1.17 1.26 1.36 1.38 1.41 1.63 1.77 2.16 2.20 2.35 2.59 2.87 2.61 2.38 2.60 3.14 3.66 3.68 3.51 3.47 3.27
0.05 0.06 0.19 0.68 0.85 0.40 0.11 0.08 0.20 0.34 0.35 0.30 0.21 0.15 0.14 0.13 0.16 0.36 0.48 0.42 0.40 0.43 0.39 0.42 0.50 0.83 1.27 1.51 1.40 1.25 1.43 1.54 1.38 1.47 1.34 1.40 1.57 2.01 2.36 2.59 2.98 2.98 2.58 2.55 3.11 3.22 3.13 3.04 2.75
0.28 0.31 0.39 0.57 0.78 0.83 0.35 0.16 0.22 0.35 0.45 0.42 0.48 0.47 0.34 0.26 0.37 0.57 0.92 0.87 0.64 0.50 0.44 0.46 0.56 0.52 0.51 0.51 0.70 1.07 1.38 1.25 1.19 1.08 1.21 1.36 1.50 1.69 2.00 2.34 2.84 3.43 3.18 2.86 2.70 2.70 2.64 2.44 2.26
0.18 0.50 1.09 1.66 1.41 0.91 0.79 0.32 0.16 0.13 0.21 0.43 1.18 1.14 0.69 0.51 0.79 0.87 1.21 1.60 1.13 0.80 0.62 0.43 0.53 0.54 0.71 0.86 0.76 0.74 0.90 0.98 1.06 1.20 1.23 1.45 1.75 1.89 2.21 2.49 2.85 3.16 3.50 3.41 3.14 2.78 2.52 2.49 2.25